[[{"header":{"parameterUnit":"m.s-1","parameterCategory":1,"la1":30.2991,"la2":30.254,"lo1":-89.0895,"lo2":-89.0444,"dy":0.0017,"dx":0.0017,"nx":28,"ny":28,"refTime":"2025-03-30T09:00:00:Z","depth":0,"parameterNumber":2,"parameterNumberName":"U-component_of_WINDS"},"data":[0,0,0,0,0,0,0,0,0,0,0,0,0,0,0,0,0,0,0,0,0,0,0,0,0,0,0,0,0,0,0,0,0,0,0,0,0,0,0,0,0,0,0,0,0,0,0,0,0,0,0,0,0,0,0,0,0,0,-3.9272,-3.9272,0,-3.9329,-3.9329,-3.933,-3.9306,-3.9305,-3.9304,-3.9302,-3.9358,-3.936,-3.9363,0,0,0,0,0,0,0,0,0,0,0,0,0,-3.914,-3.9143,-3.9272,-3.9272,-3.9273,-3.9329,-3.9329,-3.933,-3.9306,-3.9305,-3.9303,-3.9302,-3.9357,-3.936,-3.9363,0,0,0,0,0,0,0,0,0,0,0,0,0,-3.9197,-3.9143,-3.9271,-3.9268,-3.9268,-3.9328,-3.9329,-3.933,-3.9307,-3.9305,-3.9303,-3.9301,-3.9356,-3.936,-3.9364,-3.943,0,0,-3.9376,-3.9378,0,0,0,0,0,0,0,0,-3.9194,-3.9202,-3.9268,-3.9268,-3.9269,-3.9308,-3.9303,-3.9364,-3.9307,-3.9292,-3.9302,-3.93,-3.9343,-3.9348,-3.9363,-3.9432,-3.9435,-3.9377,-3.9379,-3.9381,-3.9382,0,0,0,0,0,0,0,-3.919,-3.9199,-3.9294,-3.9269,-3.9269,-3.9263,-3.9269,-3.9315,-3.9328,-3.9293,-3.9292,-3.9299,-3.9343,-3.9359,-3.9364,-3.9436,-3.9377,-3.938,-3.9383,-3.9384,-3.9562,-3.9564,0,0,0,0,0,0,-3.9186,-3.9196,-3.9292,-3.9296,-3.9226,-3.9267,-3.9273,-3.9298,-3.9327,-3.933,-3.9301,-3.9298,-3.9353,-3.9359,-3.9366,-3.9444,-3.9381,-3.9385,-3.9387,-3.9559,-3.9562,-3.9564,0,0,0,0,0,0,-3.9184,-3.9195,-3.929,-3.9246,-3.9257,-3.9271,-3.9299,-3.93,-3.9316,-3.9333,-3.9335,-3.9315,-3.9352,-3.936,-3.9414,-3.9446,-3.9387,-3.939,-3.9557,-3.956,-3.9563,-3.9601,0,0,0,0,0,0,-3.918,-3.9194,-3.922,-3.9246,-3.926,-3.9338,-3.9301,-3.9302,-3.9324,-3.932,-3.9347,-3.935,-3.9351,-3.9408,-3.9418,-3.945,-3.9394,-3.9554,-3.9558,-3.9562,-3.9597,-3.9606,-3.9613,0,0,0,0,0,-3.9175,-3.9228,-3.9221,-3.9233,-3.9292,-3.934,-3.9347,-3.9348,-3.9326,-3.9352,-3.9363,-3.9349,-3.9441,-3.9414,-3.9425,-3.9459,-3.9552,-3.9557,-3.9562,-3.9594,-3.9604,-3.9612,0,0,0,0,0,0,-3.9203,-3.9231,-3.9224,-3.9287,-3.9311,-3.9336,-3.9368,-3.9359,-3.9389,-3.9385,-3.9384,-3.9391,-3.9446,-3.9458,-3.9427,-3.9524,-3.9493,-3.9501,-3.9513,-3.9523,-3.9531,-3.9525,-3.9397,0,0,0,0,0,-3.9217,-3.9254,-3.9276,-3.933,-3.9342,-3.9353,-3.9374,-3.9373,-3.9398,-3.9407,-3.9422,-3.9446,-3.9481,-3.9503,-3.9536,-3.96,-3.9605,-3.9629,-3.9636,-3.9643,-3.9648,-3.9682,-3.9692,-3.9581,-3.9581,-3.9581,0,0,-3.9245,-3.9265,-3.9288,-3.9336,-3.9354,-3.9392,-3.9362,-3.9403,-3.943,-3.9413,-3.9465,-3.9477,-3.9504,-3.9563,-3.959,-3.9575,-3.9681,-3.9649,-3.9654,-3.9656,-3.9688,-3.9699,-3.9708,-3.9584,-3.9584,-3.9583,0,0,-3.9315,-3.9335,-3.9381,-3.9401,-3.943,-3.9437,-3.9448,-3.9474,-3.9482,-3.9534,-3.9522,-3.9555,-3.9614,-3.9633,-3.9651,-3.973,-3.9718,-3.9741,-3.978,-3.9813,-3.9822,-3.9829,-3.9856,-3.9865,-3.9747,-3.9747,-3.9747,0,-3.9346,-3.9402,-3.9405,-3.9447,-3.9468,-3.9456,-3.9502,-3.9521,-3.9559,-3.9573,-3.9557,-3.9631,-3.9649,-3.9711,-3.9731,-3.9746,-3.9758,-3.9736,-3.9821,-3.9828,-3.9835,-3.986,-3.9871,-3.975,-3.9749,-3.9749,-3.9749,0,-3.9438,-3.9478,-3.9512,-3.9549,-3.9574,-3.9618,-3.9627,-3.9652,-3.9649,-3.9658,-3.9711,-3.9732,-3.9768,-3.9784,-3.9781,-3.9847,-3.9836,-3.982,-3.9789,-3.9848,-3.9872,-3.9882,-3.9753,-3.9752,-3.9752,-3.9751,0,0,-3.9524,-3.9565,-3.9577,-3.9594,-3.9626,-3.9656,-3.97,-3.9736,-3.9757,-3.9784,-3.9819,-3.9871,-3.9857,-3.9877,-3.9877,-3.9906,-3.9965,-3.9886,-3.9887,-3.9898,-4.0037,-4.0047,-4.0058,-3.9959,-3.9961,-3.9962,-4.0034,0,-3.9595,-3.9672,-3.9676,-3.9745,-3.9781,-3.9772,-3.9809,-3.9833,-3.9843,-3.9874,-3.9885,-3.9921,-3.99,-3.9912,-3.9941,-3.9952,-3.9993,-3.9947,-3.999,-3.9991,-3.9981,-4.007,-4.0081,-4.0147,-4.0043,-4.0045,-4.0046,0,-3.9687,-3.9718,-3.9791,-3.9818,-3.9833,-3.9867,-3.9901,-3.9932,-3.9958,-3.9963,-3.9987,-3.9983,-4.0026,-3.9996,-4.0055,-4.0025,-4.0043,-4.0051,-4.0054,-4.0055,-4.002,-4.0072,-4.0169,-4.0178,-4.0061,-4.006,-4.0059,0,-3.974,-3.98,-3.9851,-3.9867,-3.99,-3.9924,-3.9939,-3.9964,-3.9985,-4.0015,-4.0029,-4.0063,-4.0081,-4.0108,-4.0113,-4.0091,-4.0172,-4.0142,-4.0176,-4.0176,-4.0191,-4.0189,-4.0289,-4.0207,-4.0207,-4.0207,-4.0207,0,-3.9817,-3.9861,-3.9876,-3.9907,-3.9956,-3.9961,-4.001,-4.0023,-4.0045,-4.0078,-4.0073,-4.0104,-4.011,-4.0142,-4.0147,-4.0194,-4.0203,-4.0207,-4.0208,-4.0206,-4.0206,-4.0216,-4.0211,-4.021,-4.0209,-4.0209,-4.0208,0,-3.9883,-3.9895,-3.995,-3.9978,-3.9986,-4.0021,-4.0044,-4.0074,-4.0084,-4.0126,-4.0136,-4.0151,-4.0189,-4.0197,-4.0242,-4.0245,-4.0301,-4.0298,-4.0292,-4.0291,-4.0323,-4.0319,-4.0431,-4.0445,-4.0356,-4.0357,-4.0358,0,-3.993,-3.9964,-3.9996,-4.0018,-4.0034,-4.007,-4.0093,-4.01,-4.0123,-4.0156,-4.0182,-4.0219,-4.0249,-4.0309,-4.0324,-4.0358,-4.0354,-4.0391,-4.0359,-4.0356,-4.0352,-4.0348,-4.0351,-4.0396,-4.0397,-4.0398,-4.0398,0,-4.0011,-4.0016,-4.0049,-4.0084,-4.0111,-4.0139,-4.0166,-4.0184,-4.0195,-4.0221,-4.026,-4.0284,-4.033,-4.0366,-4.0401,-4.0415,-4.0408,-4.0409,-4.0418,-4.0416,-4.041,-4.0411,-4.0306,-4.0405,-4.0405,-4.0404,-4.0404,-4.0403,-4.0067,-4.0097,-4.0124,-4.0161,-4.0182,-4.0208,-4.0237,-4.0251,-4.0284,-4.0322,-4.0325,-4.0366,-4.0392,-4.0438,-4.0455,-4.0487,-4.0476,-4.0489,-4.0492,-4.0495,-4.0497,-4.0407,-4.0494,-4.0494,-4.0493,-4.0493,-4.0493,0,-4.0146,-4.0164,-4.0198,-4.0236,-4.0265,-4.0258,-4.0288,-4.0312,-4.0349,-4.0375,-4.0404,-4.0449,-4.0485,-4.0503,-4.0538,-4.056,-4.0558,-4.0569,-4.0566,-4.0569,-4.0506,-4.0494,-4.0571,-4.0571,-4.0571,-4.057,-4.057,-4.057,-4.0191,-4.024,-4.0248,-4.0307,-4.0325,-4.0366,-4.0383,-4.0406,-4.0427,-4.0477,-4.0507,-4.0519,-4.0541,-4.0578,-4.061,-4.0615,-4.0627,-4.0639,-4.0642,-4.0582,-4.0574,-4.0566,-4.0554,-4.0643,-4.0643,-4.0702,-4.0703,-4.0703]},{"header":{"parameterUnit":"m.s-1","parameterCategory":1,"la1":30.2991,"la2":30.254,"lo1":-89.0895,"lo2":-89.0444,"dy":0.0017,"dx":0.0017,"nx":28,"ny":28,"refTime":"2025-03-30T09:00:00:Z","depth":0,"parameterNumber":3,"parameterNumberName":"V-component_of_WINDS"},"data":[0,0,0,0,0,0,0,0,0,0,0,0,0,0,0,0,0,0,0,0,0,0,0,0,0,0,0,0,0,0,0,0,0,0,0,0,0,0,0,0,0,0,0,0,0,0,0,0,0,0,0,0,0,0,0,0,0,0,2.4031,2.4032,0,2.4178,2.418,2.4181,2.4251,2.4251,2.4251,2.4251,2.4401,2.4405,2.4409,0,0,0,0,0,0,0,0,0,0,0,0,0,2.3812,2.3815,2.4031,2.4032,2.4034,2.4178,2.418,2.4182,2.4251,2.4251,2.4251,2.4251,2.44,2.4405,2.4409,0,0,0,0,0,0,0,0,0,0,0,0,0,2.3928,2.3817,2.403,2.4086,2.4093,2.4177,2.418,2.4182,2.4251,2.4251,2.4251,2.4251,2.4398,2.4404,2.441,2.445,0,0,2.4429,2.4431,0,0,0,0,0,0,0,0,2.3921,2.3936,2.4076,2.4083,2.409,2.4196,2.4158,2.4272,2.4251,2.4191,2.4251,2.4251,2.4333,2.4344,2.4372,2.4457,2.4463,2.4429,2.4433,2.4436,2.4437,0,0,0,0,0,0,0,2.3913,2.393,2.4089,2.4078,2.4087,2.4105,2.4121,2.418,2.4261,2.4196,2.4202,2.4218,2.4337,2.4366,2.4376,2.4465,2.4429,2.4434,2.4438,2.4441,2.4594,2.4595,0,0,0,0,0,0,2.3896,2.3923,2.4084,2.4093,2.4004,2.4109,2.4127,2.4162,2.426,2.4275,2.4218,2.4221,2.4356,2.4369,2.4382,2.4437,2.4435,2.4441,2.4445,2.4594,2.4594,2.4595,0,0,0,0,0,0,2.3891,2.3909,2.4078,2.401,2.4033,2.4113,2.4152,2.4165,2.4195,2.4277,2.4292,2.4233,2.4356,2.4373,2.4433,2.4443,2.4444,2.4449,2.4593,2.4594,2.4595,2.4546,0,0,0,0,0,0,2.3884,2.3907,2.3922,2.4009,2.4036,2.4126,2.4152,2.4168,2.4205,2.421,2.4295,2.4309,2.4357,2.4424,2.4439,2.4452,2.4454,2.4593,2.4594,2.4594,2.4548,2.4545,2.4544,0,0,0,0,0,2.3876,2.3902,2.3923,2.3942,2.4056,2.4127,2.4142,2.4198,2.4205,2.4222,2.4276,2.4306,2.444,2.4429,2.4447,2.4462,2.4592,2.4593,2.4594,2.4548,2.4546,2.4544,0,0,0,0,0,0,2.3813,2.3914,2.3938,2.3993,2.4051,2.4138,2.4161,2.4193,2.4249,2.4251,2.4318,2.4336,2.4391,2.4433,2.4419,2.4507,2.4519,2.4524,2.4478,2.4476,2.4474,2.4463,2.4459,0,0,0,0,0,2.3805,2.3854,2.394,2.398,2.4008,2.4079,2.4112,2.415,2.4213,2.4237,2.4295,2.4355,2.4411,2.4446,2.4501,2.4554,2.4575,2.4573,2.4571,2.4569,2.4572,2.4607,2.4607,2.4598,2.4598,2.4598,0,0,2.379,2.3851,2.3878,2.3969,2.4018,2.4068,2.4099,2.415,2.4188,2.4245,2.4306,2.4351,2.4422,2.4479,2.4507,2.4515,2.458,2.4571,2.4568,2.4573,2.4608,2.4608,2.4609,2.4599,2.4598,2.4598,0,0,2.3788,2.3838,2.3879,2.3928,2.4003,2.4051,2.4061,2.4145,2.4177,2.424,2.4285,2.4331,2.4425,2.4475,2.4513,2.4534,2.4565,2.455,2.4539,2.4572,2.4573,2.4574,2.4583,2.4585,2.4553,2.4553,2.4553,0,2.3759,2.3835,2.3895,2.3945,2.3984,2.404,2.4083,2.4128,2.4217,2.4243,2.4252,2.4373,2.4425,2.4496,2.4502,2.453,2.4544,2.454,2.4568,2.4569,2.4571,2.4581,2.4584,2.4551,2.4551,2.4551,2.4551,0,2.3798,2.385,2.3874,2.396,2.4003,2.4048,2.4116,2.4152,2.4188,2.4235,2.43,2.4365,2.4436,2.4456,2.449,2.4533,2.4536,2.4555,2.4568,2.4569,2.4579,2.4583,2.4548,2.4548,2.4549,2.455,0,0,2.3757,2.3879,2.3886,2.3928,2.4016,2.4059,2.4108,2.4178,2.4209,2.427,2.4314,2.4394,2.4413,2.4456,2.4497,2.4525,2.4541,2.4541,2.4544,2.454,2.4595,2.458,2.4583,2.4562,2.4563,2.4564,2.4589,0,2.3768,2.3859,2.3916,2.3984,2.4035,2.409,2.4134,2.4193,2.424,2.4291,2.4342,2.4399,2.4419,2.4446,2.4476,2.4532,2.4553,2.4531,2.4605,2.4607,2.4585,2.4589,2.4573,2.4593,2.4594,2.4594,2.4595,0,2.3792,2.3853,2.3927,2.4013,2.4036,2.4074,2.4145,2.4193,2.4263,2.4295,2.4344,2.4386,2.4443,2.4452,2.4531,2.4515,2.4549,2.4581,2.4583,2.4592,2.4601,2.4599,2.4601,2.4605,2.4601,2.4601,2.46,0,2.3758,2.3858,2.3916,2.3949,2.405,2.4076,2.412,2.419,2.423,2.4292,2.4319,2.4387,2.4424,2.4476,2.4536,2.4537,2.461,2.4624,2.464,2.4638,2.4652,2.465,2.4661,2.4673,2.4672,2.4672,2.4672,0,2.3764,2.3807,2.3902,2.3937,2.3988,2.4054,2.4103,2.4151,2.4214,2.4261,2.4313,2.4356,2.4432,2.4485,2.4533,2.4592,2.4608,2.4637,2.4649,2.4633,2.4629,2.4656,2.4656,2.4673,2.4673,2.4673,2.4673,0,2.3733,2.3798,2.3865,2.3957,2.3981,2.4015,2.4094,2.4131,2.4182,2.4241,2.4259,2.4338,2.4404,2.4469,2.4556,2.4589,2.4648,2.4664,2.4624,2.4631,2.4644,2.4642,2.4672,2.468,2.4685,2.4685,2.4685,0,2.3733,2.3768,2.3864,2.39,2.3943,2.3999,2.4041,2.4109,2.415,2.4235,2.4262,2.4332,2.4391,2.4493,2.4559,2.4627,2.4646,2.4652,2.4656,2.464,2.4648,2.4645,2.465,2.465,2.4649,2.4649,2.4649,0,2.3727,2.3758,2.3816,2.3887,2.3936,2.3994,2.4055,2.4081,2.4161,2.4205,2.4274,2.432,2.4411,2.448,2.4556,2.4602,2.464,2.4647,2.4655,2.4638,2.4615,2.4629,2.4619,2.4646,2.4646,2.4646,2.4647,2.4647,2.3713,2.3747,2.3822,2.3886,2.3939,2.3995,2.4036,2.4093,2.4151,2.423,2.4267,2.4336,2.4409,2.4516,2.4562,2.4618,2.4627,2.4637,2.464,2.4642,2.4639,2.4606,2.4632,2.4632,2.4632,2.4632,2.4632,0,2.371,2.3762,2.382,2.3904,2.3955,2.3987,2.4057,2.4097,2.4158,2.4222,2.428,2.436,2.4429,2.4501,2.4574,2.4605,2.4624,2.4622,2.462,2.4631,2.4625,2.4612,2.4605,2.4605,2.4605,2.4605,2.4605,2.4605,2.3715,2.3776,2.3817,2.3906,2.3958,2.4026,2.4064,2.4117,2.4169,2.4256,2.4314,2.4361,2.443,2.4509,2.4573,2.4593,2.4618,2.4611,2.4636,2.4629,2.4631,2.4633,2.4621,2.4616,2.4616,2.4637,2.4637,2.4637]}]]